| time (UTC) | temp F | wind direction | speed MPH | gust MPH | rain 1hr in | rain 24hr in | rain mn in | humidity % | barometer mb |
| 20260506041517 | 48 | 322 | 1.0 | 7.0 | 0.00 | 0.00 | 0.00 | 21 | 1013.4 |
| 20260506040021 | 48 | 29 | 2.0 | 5.0 | 0.00 | 0.00 | 0.00 | 20 | 1013.4 |
| 20260506034518 | 48 | 48 | 2.0 | 6.0 | 0.00 | 0.00 | 0.00 | 20 | 1013.3 |
| 20260506033003 | 49 | 308 | 2.0 | 7.0 | 0.00 | 0.00 | 0.00 | 15 | 1013.3 |
| 20260506031608 | 49 | 15 | 0.0 | 8.0 | 0.00 | 0.00 | 0.00 | 13 | 1013.4 |
| 20260506030055 | 50 | 37 | 1.0 | 5.0 | 0.00 | 0.00 | 0.00 | 11 | 1013.4 |
| 20260506024607 | 50 | 312 | 1.0 | 4.0 | 0.00 | 0.00 | 0.00 | 13 | 1013.3 |
| 20260506023047 | 50 | 42 | 2.0 | 8.0 | 0.00 | 0.00 | 0.00 | 13 | 1013.3 |
| 20260506021543 | 50 | 4 | 3.0 | 5.0 | 0.00 | 0.00 | 0.00 | 10 | 1013.4 |
| 20260506020038 | 51 | 24 | 2.0 | 6.0 | 0.00 | 0.00 | 0.00 | 6 | 1013.5 |
| 20260506014535 | 51 | 343 | 0.0 | 6.0 | 0.00 | 0.00 | 0.00 | 8 | 1013.5 |
| 20260506013039 | 51 | 31 | 1.0 | 8.0 | 0.00 | 0.00 | 0.00 | 11 | 1013.4 |
| 20260506011526 | 51 | 340 | 2.0 | 9.0 | 0.00 | 0.00 | 0.00 | 14 | 1013.4 |
| 20260506010026 | 51 | 36 | 2.0 | 7.0 | 0.00 | 0.00 | 0.00 | 17 | 1013.5 |
| 20260506004523 | 51 | 92 | 2.0 | 9.0 | 0.00 | 0.00 | 0.00 | 19 | 1013.5 |
| 20260506003021 | 51 | 21 | 1.0 | 8.0 | 0.00 | 0.00 | 0.00 | 23 | 1013.6 |
| 20260506001521 | 51 | 57 | 2.0 | 10.0 | 0.00 | 0.00 | 0.00 | 29 | 1013.7 |
| 20260506000016 | 52 | 353 | 3.0 | 9.0 | 0.00 | 0.00 | 0.00 | 35 | 1013.7 |
| 20260505234513 | 52 | 332 | 3.0 | 9.0 | 0.00 | 0.00 | 0.00 | 38 | 1013.6 |
| 20260505233018 | 52 | 37 | 2.0 | 12.0 | 0.00 | 0.00 | 0.00 | 40 | 1013.6 |
| 20260505231510 | 52 | 329 | 2.0 | 8.0 | 0.00 | 0.00 | 0.00 | 39 | 1013.5 |
| 20260505230018 | 53 | 36 | 2.0 | 11.0 | 0.00 | 0.00 | 0.00 | 40 | 1013.7 |
| 20260505224501 | 53 | 20 | 2.0 | 11.0 | 0.00 | 0.00 | 0.00 | 40 | 1013.6 |
| 20260505223110 | 53 | 10 | 4.0 | 11.0 | 0.00 | 0.00 | 0.00 | 44 | 1013.5 |
| 20260505221554 | 53 | 13 | 3.0 | 10.0 | 0.00 | 0.00 | 0.00 | 50 | 1013.3 |
| 20260505220049 | 53 | 358 | 5.0 | 10.0 | 0.00 | 0.00 | 0.00 | 52 | 1013.3 |
| 20260505214544 | 53 | 328 | 3.0 | 14.0 | 0.00 | 0.00 | 0.00 | 54 | 1013.3 |
| 20260505213051 | 54 | 48 | 3.0 | 11.0 | 0.00 | 0.00 | 0.00 | 55 | 1013.2 |
| 20260505211535 | 54 | 353 | 3.0 | 10.0 | 0.00 | 0.00 | 0.00 | 55 | 1013.1 |
| 20260505210031 | 54 | 339 | 4.0 | 9.0 | 0.00 | 0.00 | 0.00 | 54 | 1013.0 |
| 20260505204528 | 55 | 58 | 5.0 | 9.0 | 0.00 | 0.00 | 0.00 | 55 | 1013.0 |
| 20260505203041 | 55 | 353 | 3.0 | 11.0 | 0.00 | 0.00 | 0.00 | 54 | 1012.9 |
| 20260505201527 | 55 | 37 | 4.0 | 10.0 | 0.00 | 0.00 | 0.00 | 56 | 1012.9 |
| 20260505200031 | 56 | 43 | 3.0 | 12.0 | 0.00 | 0.00 | 0.00 | 55 | 1012.7 |
| 20260505194515 | 56 | 18 | 4.0 | 10.0 | 0.00 | 0.00 | 0.00 | 57 | 1012.5 |
| 20260505193112 | 56 | 335 | 3.0 | 9.0 | 0.00 | 0.00 | 0.00 | 59 | 1012.3 |
| 20260505191508 | 57 | 306 | 1.0 | 5.0 | 0.00 | 0.00 | 0.00 | 59 | 1012.1 |
| 20260505190004 | 57 | 318 | 1.0 | 5.0 | 0.00 | 0.00 | 0.00 | 59 | 1012.1 |
| 20260505184502 | 57 | 348 | 0.0 | 6.0 | 0.00 | 0.00 | 0.00 | 60 | 1012.0 |
| 20260505183107 | 57 | 337 | 2.0 | 8.0 | 0.00 | 0.00 | 0.00 | 60 | 1012.0 |
| 20260505181556 | 58 | 311 | 2.0 | 5.0 | 0.00 | 0.00 | 0.00 | 60 | 1012.0 |
| 20260505180051 | 58 | 348 | 1.0 | 9.0 | 0.00 | 0.00 | 0.00 | 60 | 1012.0 |
| 20260505174550 | 58 | 313 | 3.0 | 10.0 | 0.00 | 0.00 | 0.00 | 60 | 1012.0 |
| 20260505173047 | 58 | 317 | 5.0 | 10.0 | 0.00 | 0.00 | 0.00 | 60 | 1012.1 |
| 20260505171538 | 58 | 348 | 2.0 | 10.0 | 0.00 | 0.00 | 0.00 | 60 | 1012.1 |
| 20260505170037 | 58 | 328 | 2.0 | 9.0 | 0.00 | 0.00 | 0.00 | 60 | 1012.1 |
| 20260505164546 | 58 | 6 | 4.0 | 9.0 | 0.00 | 0.00 | 0.00 | 60 | 1012.1 |
| 20260505163025 | 58 | 333 | 3.0 | 6.0 | 0.00 | 0.00 | 0.00 | 60 | 1012.1 |
| 20260505161520 | 58 | 6 | 1.0 | 6.0 | 0.00 | 0.00 | 0.00 | 60 | 1012.1 |
| 20260505153010 | 61 | 321 | 3.0 | 9.0 | 0.00 | 0.00 | 0.00 | 60 | 1012.3 |
| 20260505151502 | 61 | 333 | 1.0 | 5.0 | 0.00 | 0.00 | 0.00 | 58 | 1012.3 |
| 20260505124525 | 60 | 358 | 2.0 | 5.0 | 0.00 | 0.00 | 0.00 | 59 | 1012.8 |
| 20260505123014 | 61 | 37 | 2.0 | 6.0 | 0.00 | 0.00 | 0.00 | 59 | 1012.9 |
| 20260505121510 | 61 | 19 | 1.0 | 8.0 | 0.00 | 0.00 | 0.00 | 59 | 1012.9 |
| 20260505120006 | 60 | 338 | 3.0 | 9.0 | 0.00 | 0.00 | 0.00 | 59 | 1012.8 |
| 20260505114501 | 59 | 304 | 3.0 | 8.0 | 0.00 | 0.00 | 0.00 | 58 | 1012.9 |
| 20260505113101 | 58 | 40 | 3.0 | 6.0 | 0.00 | 0.00 | 0.00 | 55 | 1013.0 |
| 20260505111556 | 57 | 339 | 1.0 | 7.0 | 0.00 | 0.00 | 0.00 | 52 | 1013.2 |
| 20260505101533 | 56 | 2 | 3.0 | 7.0 | 0.00 | 0.00 | 0.00 | 45 | 1013.6 |
| 20260505100040 | 56 | 307 | 2.0 | 11.0 | 0.00 | 0.00 | 0.00 | 42 | 1013.5 |
| 20260505094524 | 56 | 353 | 1.0 | 7.0 | 0.00 | 0.00 | 0.00 | 30 | 1013.6 |
| 20260505093019 | 56 | 310 | 2.0 | 8.0 | 0.00 | 0.00 | 0.00 | 28 | 1013.6 |
| 20260505091514 | 56 | 297 | 5.0 | 12.0 | 0.00 | 0.00 | 0.00 | 23 | 1013.7 |
| 20260505090010 | 56 | 62 | 4.0 | 10.0 | 0.00 | 0.00 | 0.00 | 9 | 1013.6 |
| 20260505084506 | 55 | 289 | 4.0 | 8.0 | 0.00 | 0.00 | 0.00 | 1 | 1013.8 |
| 20260505083005 | 54 | 304 | 3.0 | 8.0 | 0.00 | 0.00 | 0.00 | 1 | 1013.9 |
| 20260505081604 | 53 | 311 | 2.0 | 6.0 | 0.00 | 0.00 | 0.00 | 1 | 1013.9 |
| 20260505080059 | 53 | 33 | 3.0 | 8.0 | 0.00 | 0.00 | 0.00 | 1 | 1014.0 |
| 20260505074609 | 53 | 334 | 2.0 | 5.0 | 0.00 | 0.00 | 0.00 | 1 | 1013.8 |
| 20260505073052 | 53 | 316 | 1.0 | 5.0 | 0.00 | 0.00 | 0.00 | 1 | 1013.9 |
| 20260505071545 | 53 | 4 | 2.0 | 6.0 | 0.00 | 0.00 | 0.00 | 1 | 1014.0 |
| 20260505070040 | 52 | 325 | 1.0 | 5.0 | 0.00 | 0.00 | 0.00 | 1 | 1014.0 |
| 20260505064537 | 51 | 33 | 2.0 | 5.0 | 0.00 | 0.00 | 0.00 | 1 | 1014.0 |
| 20260505063039 | 51 | 301 | 1.0 | 4.0 | 0.00 | 0.00 | 0.00 | 1 | 1014.0 |
| 20260505061532 | 50 | 320 | 2.0 | 6.0 | 0.00 | 0.00 | 0.00 | 1 | 1013.9 |
| 20260505060021 | 50 | 297 | 0.0 | 5.0 | 0.00 | 0.00 | 0.00 | 1 | 1014.0 |
| 20260505054523 | 50 | 343 | 2.0 | 5.0 | 0.00 | 0.00 | 0.00 | 1 | 1014.0 |
| 20260505053012 | 50 | 297 | 0.0 | 4.0 | 0.00 | 0.00 | 0.00 | 1 | 1014.0 |
| 20260505051508 | 50 | 321 | 1.0 | 3.0 | 0.00 | 0.00 | 0.00 | 1 | 1014.0 |